Hattiesburg, MS

8:35 PM CST on December 16, 2017 (GMT -0600)
Chain Municipal

Weather History for KHBG - January, 2006

Change the Weather History Date:

Thursday, January 5, 2006

  Actual Average Record
Temperature  
Mean Temperature 52 °F 49 °F  
Max Temperature 62 °F 60 °F 78 °F (1955)
Min Temperature 43 °F 38 °F 14 °F (1999)
Degree Days  
Heating Degree Days 12 16  
Month to date heating degree days 80  
Since 1 July heating degree days 865  
Cooling Degree Days 0 0  
Month to date cooling degree days 0  
Year to date cooling degree days 0  
Growing Degree Days 2 (Base 50)    
Moisture  
Dew Point 35 °F    
Average Humidity 56    
Maximum Humidity 89    
Minimum Humidity 26    
Precipitation  
Precipitation 0.00 in 0.19 in 2.58 in (1998)
Month to date precipitation 0.94  
Year to date precipitation 0.94  
Sea Level Pressure  
Sea Level Pressure 30.01 in    
Wind  
Wind Speed 6 mph (NW)    
Max Wind Speed 17 mph    
Max Gust Speed 26 mph    
Visibility 10 miles    
Events      
T = Trace of Precipitation, MM = Missing Value Source: NWS Daily Summary

Daily Weather History Graph

Daily Weather History Graph

Search for Another Location

Airport or City:

Trip Planner

Search our weather history database for the weather conditions in past years. The results will help you decide how hot, cold, wet, or windy it might be!

Date:

Astronomy

Jan. 05, 2006 Rise Set
Actual Time 6:56 AM CST 5:08 PM CST
Civil Twilight 6:29 AM CST 5:35 PM CST
Nautical Twilight 5:59 AM CST 6:05 PM CST
Astronomical Twilight 5:30 AM CST 6:34 PM CST
Moon 11:03 AM CST (1/5) 11:33 PM CST (1/5)
Length of Visible Light 11h 05m
Length of Day
10h 12m
Waxing Crescent, 38% of the Moon is Illuminated
Jan 5
Waxing Crescent
Jan 6
First Quarter
Jan 14
Full
Jan 22
Last Quarter
Jan 29
New

Hourly Weather History & Observations

Time (CST) Temp. Windchill Dew Point Humidity Pressure Visibility Wind Dir Wind Speed Gust Speed Precip Events Conditions
12:53 AM 53.1 °F - 46.9 °F 80% 29.95 in 10.0 mi Calm Calm - N/A   Clear
1:53 AM 50.0 °F - 46.0 °F 86% 29.97 in 9.0 mi Calm Calm - N/A   Clear
2:53 AM 48.0 °F - 45.0 °F 89% 29.97 in 7.0 mi NW 4.6 mph - N/A   Clear
3:53 AM 48.9 °F - 44.1 °F 83% 29.97 in 10.0 mi NW 4.6 mph - N/A   Clear
4:53 AM 46.9 °F - 42.1 °F 83% 29.97 in 10.0 mi NW 4.6 mph - N/A   Clear
5:53 AM 43.0 °F 41.3 °F 39.9 °F 89% 29.98 in 10.0 mi WNW 3.5 mph - N/A   Clear
6:53 AM 46.9 °F - 39.0 °F 74% 30.01 in 10.0 mi NW 6.9 mph - N/A   Clear
7:53 AM 48.9 °F - 39.9 °F 71% 30.04 in 10.0 mi NW 9.2 mph - N/A   Clear
8:53 AM 51.1 °F - 41.0 °F 68% 30.07 in 10.0 mi NNW 10.4 mph - N/A   Clear
9:53 AM 53.1 °F - 39.0 °F 59% 30.09 in 10.0 mi North 12.7 mph - N/A   Clear
10:53 AM 55.0 °F - 33.1 °F 43% 30.06 in 10.0 mi North 11.5 mph - N/A   Clear
11:53 AM 59.0 °F - 33.1 °F 38% 30.01 in 10.0 mi NNW 12.7 mph - N/A   Clear
12:53 PM 61.0 °F - 30.0 °F 31% 29.97 in 10.0 mi NNW 16.1 mph - N/A   Clear
1:53 PM 62.1 °F - 27.0 °F 26% 29.96 in 10.0 mi NW 13.8 mph 21.9 mph N/A   Partly Cloudy
2:53 PM 61.0 °F - 27.0 °F 27% 29.96 in 10.0 mi NNW 16.1 mph 25.3 mph N/A   Partly Cloudy
3:53 PM 59.0 °F - 28.9 °F 32% 29.98 in 10.0 mi NNW 17.3 mph 26.5 mph N/A   Clear
4:53 PM 57.0 °F - 30.0 °F 36% 30.00 in 10.0 mi NNW 13.8 mph 23.0 mph N/A   Clear
5:53 PM 54.0 °F - 30.0 °F 40% 30.02 in 10.0 mi NW 8.1 mph - N/A   Clear
6:53 PM 52.0 °F - 30.0 °F 43% 30.04 in 10.0 mi NW 5.8 mph - N/A   Clear
7:53 PM 48.9 °F - 30.0 °F 48% 30.06 in 10.0 mi WNW 3.5 mph - N/A   Clear
8:53 PM 48.0 °F - 30.0 °F 50% 30.06 in 10.0 mi WNW 6.9 mph - N/A   Clear
9:53 PM 46.9 °F - 28.9 °F 50% 30.06 in 10.0 mi WNW 5.8 mph - N/A   Clear
10:53 PM 46.9 °F - 27.0 °F 46% 30.06 in 10.0 mi NW 3.5 mph - N/A   Clear
11:53 PM 45.0 °F 41.8 °F 27.0 °F 49% 30.06 in 10.0 mi NW 5.8 mph - N/A   Clear